User: anonymous   Login
Location: Alfortville
(48.8058°N, 2.4204°E)
Time: 09:16:31
(UTC+00:00)
Language:

Cosmos 2344 - Orbit

View from above orbital plane
View from above orbital plane
View from above satellite
View from above satellite

Ground track
Ground track

The orbit data is extracted from the following two-line orbital elements,

1 24827U 97028A   22020.14190574 -.00000211  00000-0 -19541-2 0  9994
2 24827  63.3181  22.9237 1046023  48.9954  23.9148 11.07947033996418
Epoch (UTC): 20 January 2022 03:24:20
Eccentricity: 0.1046023
inclination: 63.3181°
perigee height: 1232 km
apogee height: 3010 km
right ascension of ascending node: 22.9237°
argument of perigee: 48.9954°
revolutions per day: 11.07947033
mean anomaly at epoch: 23.9148°
orbit number at epoch: 99641

The dashed part of the orbit path shows where the satellite is in the earth's shadow,  

DLR